TimeEST,TemperatureF,Dew PointF,Humidity,Sea Level PressureIn,VisibilityMPH,Wind Direction,Wind SpeedMPH,Gust SpeedMPH,PrecipitationIn,Events,Conditions,WindDirDegrees,DateUTC
12:02 AM,68.0,66.9,96,30.17,10.0,NE,9.2,-,0.00,Rain,Light Rain,50,2014-01-09 05:02:00
12:44 AM,68.0,66.9,96,30.15,10.0,NE,9.2,-,0.00,,Mostly Cloudy,50,2014-01-09 05:44:00
12:51 AM,68.0,66.2,94,30.15,10.0,NE,9.2,-,0.00,,Scattered Clouds,50,2014-01-09 05:51:00
12:53 AM,68.0,66.9,96,30.15,10.0,NE,10.4,-,0.00,,Partly Cloudy,50,2014-01-09 05:53:00
1:53 AM,68.0,66.9,96,30.13,10.0,NE,9.2,18.4,0.00,Rain,Light Rain,50,2014-01-09 06:53:00
1:57 AM,68.0,66.9,96,30.13,10.0,NE,10.4,-,0.00,Rain,Light Rain,50,2014-01-09 06:57:00
2:06 AM,68.0,66.9,96,30.13,10.0,NE,8.1,17.3,0.00,Rain,Light Rain,50,2014-01-09 07:06:00
2:32 AM,68.0,68.0,100,30.13,10.0,NE,10.4,-,0.00,,Overcast,50,2014-01-09 07:32:00
2:53 AM,68.0,66.9,96,30.13,10.0,NE,10.4,-,0.00,,Overcast,40,2014-01-09 07:53:00
3:04 AM,68.0,66.9,96,30.13,9.0,NE,6.9,-,N/A,,Overcast,50,2014-01-09 08:04:00
3:53 AM,66.9,66.9,100,30.13,10.0,NNE,9.2,-,N/A,,Overcast,30,2014-01-09 08:53:00
4:53 AM,68.0,66.9,96,30.13,10.0,NNE,9.2,-,N/A,,Overcast,30,2014-01-09 09:53:00
5:05 AM,66.9,66.9,100,30.13,10.0,NE,12.7,-,N/A,,Overcast,40,2014-01-09 10:05:00
5:15 AM,68.0,66.9,96,30.13,8.0,NE,11.5,-,N/A,,Overcast,40,2014-01-09 10:15:00
5:53 AM,68.0,68.0,100,30.13,10.0,NE,9.2,-,0.00,Rain,Light Rain,50,2014-01-09 10:53:00
6:53 AM,68.0,66.9,96,30.14,10.0,NE,11.5,17.3,0.00,Rain,Light Rain,50,2014-01-09 11:53:00
7:21 AM,68.0,68.0,100,30.14,10.0,NE,9.2,-,0.01,,Mostly Cloudy,40,2014-01-09 12:21:00
7:53 AM,68.0,68.0,100,30.17,10.0,NE,8.1,-,0.01,,Scattered Clouds,50,2014-01-09 12:53:00
8:53 AM,69.1,69.1,100,30.19,10.0,ENE,9.2,-,N/A,,Clear,60,2014-01-09 13:53:00
9:53 AM,69.1,68.0,96,30.19,10.0,NE,8.1,-,N/A,,Clear,40,2014-01-09 14:53:00
10:53 AM,69.1,68.0,96,30.21,10.0,NE,8.1,-,0.00,Rain,Light Rain,40,2014-01-09 15:53:00
11:53 AM,69.1,68.0,96,30.19,10.0,NE,8.1,-,0.01,,Scattered Clouds,40,2014-01-09 16:53:00
12:53 PM,71.1,69.1,93,30.15,10.0,NNE,6.9,-,0.00,,Clear,30,2014-01-09 17:53:00
1:53 PM,73.0,70.0,90,30.11,10.0,ENE,5.8,-,N/A,,Clear,70,2014-01-09 18:53:00
2:53 PM,73.9,71.1,91,30.09,10.0,East,11.5,-,N/A,,Clear,90,2014-01-09 19:53:00
3:53 PM,73.9,71.1,91,30.08,10.0,East,10.4,-,N/A,,Clear,80,2014-01-09 20:53:00
4:53 PM,73.9,72.0,93,30.09,10.0,ENE,6.9,-,N/A,,Clear,70,2014-01-09 21:53:00
6:46 PM,73.0,71.1,93,30.12,10.0,NNE,4.6,-,N/A,,Mostly Cloudy,20,2014-01-09 23:46:00
6:53 PM,73.0,71.1,93,30.13,10.0,NNE,4.6,-,N/A,,Mostly Cloudy,30,2014-01-09 23:53:00
7:53 PM,72.0,70.0,93,30.15,10.0,East,4.6,-,N/A,,Clear,80,2014-01-10 00:53:00
8:53 PM,72.0,70.0,93,30.16,10.0,NE,3.5,-,N/A,,Clear,40,2014-01-10 01:53:00
9:53 PM,70.0,68.0,93,30.17,10.0,NNE,4.6,-,N/A,,Clear,30,2014-01-10 02:53:00
10:53 PM,70.0,68.0,93,30.16,10.0,NE,6.9,-,N/A,,Clear,40,2014-01-10 03:53:00
11:53 PM,69.1,68.0,96,30.14,10.0,NE,5.8,-,N/A,,Clear,40,2014-01-10 04:53:00